TimeEAT,TemperatureF,Dew PointF,Humidity,Sea Level PressureIn,VisibilityMPH,Wind Direction,Wind SpeedMPH,Gust SpeedMPH,PrecipitationIn,Events,Conditions,WindDirDegrees,DateUTC
1:00 AM,57.2,51.8,82,-9999,-9999.0,Calm,Calm,-,N/A,,Clear,0,2012-10-07 22:00:00
2:00 AM,51.8,51.8,100,30.21,-9999.0,East,4.6,-,N/A,,Clear,90,2012-10-07 23:00:00
3:00 AM,53.6,51.8,94,30.21,-9999.0,East,11.5,-,N/A,,Clear,90,2012-10-08 00:00:00
4:00 AM,53.6,51.8,94,30.18,6.2,ENE,9.2,-,N/A,,Scattered Clouds,70,2012-10-08 01:00:00
5:00 AM,53.6,51.8,94,30.21,6.2,East,9.2,-,N/A,,Scattered Clouds,80,2012-10-08 02:00:00
6:00 AM,55.4,51.8,88,30.21,6.2,East,9.2,-,N/A,,Scattered Clouds,80,2012-10-08 03:00:00
7:00 AM,53.6,51.8,94,30.24,6.2,East,8.1,-,N/A,,Scattered Clouds,100,2012-10-08 04:00:00
8:00 AM,60.8,53.6,77,30.27,6.2,East,8.1,-,N/A,,Partly Cloudy,90,2012-10-08 05:00:00
9:00 AM,68.0,51.8,56,30.27,6.2,East,8.1,-,N/A,,Partly Cloudy,80,2012-10-08 06:00:00
10:00 AM,69.8,51.8,53,-9999,6.2,East,12.7,-,N/A,,Scattered Clouds,90,2012-10-08 07:00:00
11:00 AM,71.6,51.8,50,-9999,6.2,NE,12.7,-,N/A,,Partly Cloudy,50,2012-10-08 08:00:00
12:00 PM,75.2,46.4,36,30.27,6.2,East,11.5,-,N/A,,Scattered Clouds,80,2012-10-08 09:00:00
1:00 PM,73.4,50.0,44,-9999,6.2,NE,16.1,-,N/A,,Scattered Clouds,50,2012-10-08 10:00:00
2:00 PM,73.4,46.4,38,30.21,6.2,NE,13.8,-,N/A,,Mostly Cloudy,40,2012-10-08 11:00:00
3:00 PM,77.0,46.4,34,30.18,6.2,NE,6.9,-,N/A,,Scattered Clouds,50,2012-10-08 12:00:00
4:00 PM,73.4,46.4,38,-9999,6.2,ENE,10.4,-,N/A,,Scattered Clouds,60,2012-10-08 13:00:00
5:00 PM,75.2,48.2,38,30.18,6.2,East,9.2,-,N/A,,Scattered Clouds,90,2012-10-08 14:00:00
6:00 PM,66.2,53.6,64,30.18,6.2,South,4.6,-,N/A,,Mostly Cloudy,180,2012-10-08 15:00:00
7:00 PM,64.4,53.6,68,-9999,6.2,Calm,Calm,-,N/A,,Scattered Clouds,0,2012-10-08 16:00:00
8:00 PM,60.8,55.4,82,-9999,6.2,Calm,Calm,-,N/A,,Scattered Clouds,0,2012-10-08 17:00:00
9:00 PM,55.4,53.6,94,30.24,6.2,NE,4.6,-,N/A,,Mostly Cloudy,50,2012-10-08 18:00:00
10:00 PM,60.8,50.0,68,-9999,6.2,East,8.1,-,N/A,,Scattered Clouds,90,2012-10-08 19:00:00
11:00 PM,59.0,50.0,72,-9999,6.2,Calm,Calm,-,N/A,,Scattered Clouds,0,2012-10-08 20:00:00